Flag for U.S.A. Weather past 2 weeks in Dayton, Ohio, U.S.A.

Now
39 °F

Clear.


Feels Like: 34 °F
Forecast: 35 / 64 °F
Wind: 7 mph from East

Location: Dayton / Wright-Patterson Air Force Base


UV Index: 3 (Moderate)

Visibility: 10 mi


Pressure: 30.33 "Hg

Humidity: 54%

Dew point: 24 °F

Location of DaytonLocation

Historic Weather in Dayton

°F

Dayton temperature yesterday

Maximum temperature yesterday: 49 °F (at 5:58 PM)
Minimum temperature yesterday: 24 °F (at 6:58 AM)
Average temperature yesterday: 37 °F

Past Weeks' High & Low Weather Summary

 TemperatureHumidityPressure
High80 °F (Apr 13, 4:58 PM)100% (Apr 4, 3:58 AM)30.46 "Hg (Apr 4, 3:58 AM)
Low24 °F (Apr 16, 6:58 AM)28% (Apr 10, 3:58 PM)29.37 "Hg (Apr 7, 7:58 PM)
Average51 °F67%29.95 "Hg
* Reported Apr 1 10:58 PM — Apr 16 10:58 PM, Dayton, Weather by CustomWeather, © 2014

Note: Actual official high and low records may vary slightly from our data, if they occured in-between our weather recording intervals... More about our weather records

Advertising

Historic Weather Conditions — Data for Previous 24 hours

 ConditionsComfort  
Time TempWeatherWind HumidityBarometerVisibility
10:58 PM
Apr 16
42 °FClear.7 mph49%30.32 "Hg10 mi
9:58 PM43 °FClear.9 mph47%30.31 "Hg10 mi
8:58 PM44 °FSunny.7 mph45%30.31 "Hg10 mi
7:58 PM46 °FSunny.9 mph38%30.31 "Hg10 mi
6:58 PM47 °FSunny.12 mph35%30.32 "Hg10 mi
5:58 PM49 °FSunny.13 mph34%30.34 "Hg10 mi
4:58 PM48 °FSunny.15 mph34%30.35 "Hg10 mi
3:58 PM47 °FSunny.14 mph37%30.38 "Hg10 mi
2:58 PM45 °FSunny.13 mph38%30.40 "Hg10 mi
1:58 PM43 °FSunny.12 mph38%30.42 "Hg10 mi
12:58 PM41 °FSunny.12 mph38%30.44 "Hg10 mi
11:58 AM39 °FSunny.10 mph37%30.46 "Hg10 mi
10:58 AM37 °FSunny.9 mph36%30.45 "Hg10 mi
9:58 AM35 °FSunny.8 mph37%30.46 "Hg10 mi
8:58 AM32 °FSunny.8 mph48%30.45 "Hg10 mi
7:58 AM27 °FSunny.2 mph75%30.44 "Hg10 mi
6:58 AM24 °FClear.1 mph83%30.43 "Hg10 mi
5:58 AM24 °FClear.No wind80%30.40 "Hg10 mi
4:58 AM24 °FClear.No wind72%30.38 "Hg10 mi
3:58 AM26 °FClear.3 mph68%30.35 "Hg10 mi
2:58 AM28 °FClear.No wind58%30.32 "Hg10 mi
1:58 AM28 °FClear.2 mph58%30.29 "Hg10 mi
12:58 AM29 °FClear.5 mph58%30.29 "Hg10 mi
Weather by CustomWeather, © 2014

See weather overview